Date,TemperatureHighF,TemperatureAvgF,TemperatureLowF,DewpointHighF,DewpointAvgF,DewpointLowF,HumidityHigh,HumidityAvg,HumidityLow,PressureMaxIn,PressureMinIn,WindSpeedMaxMPH,WindSpeedAvgMPH,GustSpeedMaxMPH,PrecipitationSumIn
2013-1-1,52.0,39.8,33.1,40.9,36.5,32.6,98,89,61,30.20,30.07,4,0,0,0.00
2013-1-2,54.9,40.0,29.1,41.5,35.4,28.6,98,85,56,30.16,30.00,3,0,0,0.00
2013-1-3,53.1,39.6,29.3,43.9,36.6,28.8,98,90,67,30.16,30.05,2,0,0,0.00
2013-1-4,55.6,41.5,31.5,45.6,38.4,31.0,98,90,67,30.20,30.03,3,0,0,0.00
2013-1-5,53.8,42.7,33.3,47.4,41.3,32.8,98,95,78,30.18,29.96,4,0,0,0.64
2013-1-6,51.8,45.0,38.1,50.6,44.2,37.6,98,97,89,30.05,29.95,3,0,0,0.49
2013-1-7,48.7,41.2,36.9,46.4,40.5,36.4,98,98,90,30.13,29.98,4,1,0,0.00
2013-1-8,55.6,44.6,35.8,49.3,42.7,35.3,98,93,77,30.13,29.95,3,0,0,0.00
2013-1-9,51.3,44.9,37.8,49.3,43.5,37.3,98,95,80,30.06,29.76,5,1,0,0.01
2013-1-10,49.6,39.2,30.9,41.6,35.4,30.4,98,87,62,30.03,29.90,6,1,0,0.00
2013-1-11,51.1,37.8,28.0,39.4,32.5,27.5,98,83,49,30.13,29.96,4,1,0,0.01
2013-1-12,46.9,36.9,28.4,34.2,30.0,22.0,98,78,39,30.13,30.00,3,0,0,0.01
2013-1-13,44.6,34.3,24.1,35.0,28.5,23.6,98,81,57,30.15,29.98,4,1,0,0.01
2013-1-14,49.6,38.3,28.0,30.4,26.7,22.3,86,65,39,30.29,30.09,5,1,0,0.00
2013-1-15,52.5,39.0,28.8,37.3,33.2,27.6,98,81,56,30.39,30.23,2,0,0,0.00
2013-1-16,55.8,40.6,28.6,42.0,35.5,28.1,98,84,57,30.34,30.15,3,0,0,0.00
2013-1-17,59.2,41.6,28.6,42.8,36.3,28.1,98,84,51,30.18,29.98,3,0,0,0.00
2013-1-18,59.4,42.8,30.4,44.2,37.7,29.9,98,84,52,30.13,29.99,5,0,0,0.00
2013-1-19,60.4,42.5,30.0,44.7,37.7,29.5,98,85,53,30.16,29.96,4,0,0,0.00
2013-1-20,60.6,42.4,30.0,43.5,36.4,29.5,98,82,40,30.15,29.97,4,0,0,0.00
2013-1-21,62.8,44.8,32.5,43.3,38.3,32.0,98,81,45,30.08,29.96,3,0,0,0.00
2013-1-22,61.2,46.4,33.3,47.1,41.5,32.8,98,85,56,30.03,29.82,3,0,0,0.00
2013-1-23,59.2,49.4,44.1,52.9,47.0,43.6,98,92,62,29.97,29.87,4,0,0,0.21
2013-1-24,57.6,51.8,47.8,55.7,51.1,47.3,98,98,91,30.05,29.94,5,0,0,0.09
2013-1-25,65.7,56.6,52.0,60.3,55.1,51.5,98,95,79,30.07,29.87,3,0,0,0.02
2013-1-26,62.4,53.6,44.2,56.6,50.2,43.7,98,89,59,29.88,29.76,7,2,0,0.00
2013-1-27,55.0,45.1,36.0,46.1,40.4,35.5,98,85,55,30.01,29.86,4,0,0,0.00
2013-1-28,56.8,44.3,32.7,44.2,38.9,32.2,98,83,56,30.12,30.01,5,1,0,0.00
2013-1-29,60.6,46.6,36.7,45.8,41.2,36.2,98,83,54,30.20,30.07,6,1,0,0.00
2013-1-30,62.1,47.9,36.3,49.0,43.2,35.8,98,85,61,30.22,30.08,6,1,0,0.00
2013-1-31,64.0,49.0,36.9,51.6,44.8,36.4,98,87,61,30.18,30.03,4,0,0,0.00
2013-2-1,65.7,50.1,37.2,53.8,46.4,36.7,98,88,62,30.11,29.97,2,0,0,0.00
2013-2-2,64.0,50.2,41.9,51.8,46.5,41.4,98,88,60,30.16,29.98,3,0,0,0.00
2013-2-3,62.2,48.6,39.6,53.0,45.9,39.1,98,91,66,30.12,29.94,5,0,0,0.03
2013-2-4,63.9,50.3,38.5,53.5,46.9,38.0,98,89,63,30.04,29.89,4,0,0,0.00
2013-2-5,57.4,48.0,40.3,50.2,45.5,39.8,98,91,76,30.04,29.88,6,2,0,0.00
2013-2-6,61.7,47.6,37.8,48.7,42.9,37.3,98,85,53,30.10,29.96,5,1,0,0.00
2013-2-7,58.6,47.5,39.4,51.4,43.4,38.9,98,87,52,30.04,29.84,6,2,0,0.02
2013-2-8,57.4,46.1,35.6,45.5,38.5,33.9,98,77,46,29.88,29.73,7,2,0,0.01
2013-2-9,57.7,44.6,32.0,37.3,34.3,30.1,96,69,44,29.95,29.82,5,1,0,0.00
2013-2-10,60.4,45.7,32.4,43.7,38.7,31.9,98,79,53,30.01,29.83,5,1,0,0.00
2013-2-11,62.6,47.0,32.5,39.9,35.9,31.5,98,70,35,30.11,29.93,4,0,0,0.00
2013-2-12,62.1,47.9,35.1,44.7,40.5,34.6,98,78,50,30.25,30.09,3,0,0,0.00
2013-2-13,64.4,49.4,35.8,47.4,42.4,35.3,98,79,53,30.22,30.05,4,0,0,0.00
2013-2-14,69.1,51.8,37.4,50.1,45.0,36.9,98,80,49,30.13,30.00,4,0,0,0.00
2013-2-15,70.9,53.5,39.4,51.8,46.8,38.9,98,81,50,30.14,30.05,3,0,0,0.00
2013-2-16,68.7,52.9,41.7,51.1,45.4,41.2,98,79,45,30.14,29.87,4,0,0,0.00
2013-2-17,66.2,51.5,39.9,49.4,44.8,39.4,98,80,51,29.91,29.72,4,0,0,0.00
2013-2-18,61.7,49.1,39.6,50.6,44.2,39.1,98,84,66,29.88,29.72,6,2,0,0.00
2013-2-19,46.6,43.0,36.5,46.1,41.5,36.0,98,95,86,29.80,29.57,6,2,0,0.23
2013-2-20,60.1,44.7,31.1,43.4,36.6,30.6,98,76,42,29.90,29.69,6,1,0,0.01
2013-2-21,61.3,47.1,35.4,45.7,38.9,34.9,98,76,40,30.02,29.90,6,1,0,0.00
2013-2-22,64.4,50.1,34.7,45.2,40.7,34.2,98,73,42,30.12,29.99,7,2,0,0.00
2013-2-23,60.4,51.0,41.7,46.4,38.0,30.1,98,65,33,30.09,29.99,9,3,0,0.00
2013-2-24,63.3,49.6,37.8,37.6,33.3,30.7,78,56,31,30.12,29.97,5,1,0,0.00
2013-2-25,63.7,50.8,37.8,46.3,39.5,34.9,92,67,41,30.15,30.00,5,1,0,0.00
2013-2-26,67.1,52.9,37.9,37.8,34.9,24.4,87,54,21,30.09,29.95,8,2,0,0.00
2013-2-27,69.1,52.3,35.4,45.3,38.3,31.6,91,62,31,30.20,30.07,6,1,0,0.00
2013-2-28,71.2,57.3,43.5,48.4,44.9,41.5,93,66,41,30.29,30.18,3,0,0,0.00
2013-3-1,73.0,57.6,42.8,54.3,49.1,42.3,98,76,49,30.30,30.06,3,0,0,0.00
2013-3-2,72.0,60.0,47.5,56.6,52.6,47.0,98,79,52,30.12,29.82,3,0,0,0.00
2013-3-3,69.3,60.0,49.8,58.3,53.6,49.0,97,80,62,29.93,29.82,5,1,0,0.00
2013-3-4,70.0,54.8,44.6,56.6,50.0,43.2,98,85,61,30.00,29.82,6,2,0,0.00
2013-3-5,66.6,53.7,45.9,49.0,45.5,40.8,98,75,52,29.91,29.70,10,2,0,0.10
2013-3-6,61.5,52.7,46.8,49.4,45.3,40.1,98,78,50,29.95,29.71,6,2,0,0.21
2013-3-7,63.5,51.4,40.3,48.8,44.0,39.8,98,78,51,29.90,29.74,4,0,0,0.00
2013-3-8,71.4,53.0,39.2,48.4,43.3,36.9,98,74,29,29.90,29.67,7,1,0,0.00
2013-3-9,70.0,55.0,40.3,50.8,41.9,33.2,98,67,26,30.17,29.91,8,1,0,0.00
2013-3-10,68.0,54.9,40.3,50.4,44.7,37.9,97,71,43,30.28,30.10,4,1,0,0.00
2013-3-11,74.1,57.7,41.9,53.5,47.2,41.4,98,72,38,30.17,29.93,2,0,0,0.00
2013-3-12,76.3,61.4,45.1,55.8,51.3,44.6,98,73,47,30.06,29.89,3,0,0,0.00
2013-3-13,78.1,62.9,47.3,59.6,54.2,46.8,98,76,48,30.03,29.89,3,0,0,0.00
2013-3-14,82.9,64.8,49.8,60.2,55.2,49.3,98,75,44,30.00,29.88,4,0,0,0.00
2013-3-15,77.5,62.7,49.3,60.5,53.7,48.8,98,76,42,29.97,29.83,4,0,0,0.00
2013-3-16,78.4,63.0,46.4,56.7,50.1,38.0,98,69,25,29.93,29.79,4,0,0,0.00
2013-3-17,72.7,61.0,48.4,48.3,44.2,39.3,79,56,33,29.98,29.80,5,1,0,0.00
2013-3-18,73.0,59.2,43.3,50.6,46.5,42.3,98,66,38,29.96,29.83,3,0,0,0.00
2013-3-19,73.8,59.8,48.6,54.3,49.9,46.7,98,72,45,29.98,29.88,5,1,0,0.22
2013-3-20,63.9,56.9,50.9,61.3,55.7,50.4,98,96,87,29.98,29.88,6,1,0,0.43
2013-3-21,67.1,55.6,44.4,53.8,44.7,31.8,98,71,27,29.97,29.81,4,1,0,0.00
2013-3-22,65.7,54.8,39.7,37.5,31.5,11.4,75,45,12,29.95,29.84,8,2,0,0.00
2013-3-23,70.0,55.6,40.3,40.9,36.2,31.2,73,50,28,30.00,29.84,4,1,0,0.00
2013-3-24,76.5,58.7,41.5,50.4,42.6,37.5,95,60,28,29.96,29.73,2,0,0,0.00
2013-3-25,74.5,59.2,48.4,54.1,48.1,41.7,93,69,44,29.85,29.71,6,2,0,0.00
2013-3-26,73.4,60.0,46.4,54.1,49.5,45.6,97,71,47,29.84,29.71,4,1,0,0.01
2013-3-27,76.3,60.3,47.8,57.7,52.2,46.2,95,76,52,29.86,29.76,7,1,0,0.00
2013-3-28,72.7,62.4,54.9,59.8,55.9,53.5,98,81,57,29.94,29.85,4,0,0,0.00
2013-3-29,79.7,63.4,48.2,58.2,53.6,47.7,98,74,43,29.95,29.80,4,0,0,0.00
2013-3-30,79.2,64.3,52.0,60.3,55.2,51.5,98,75,47,29.88,29.72,6,0,0,0.00
2013-3-31,73.2,66.9,58.6,62.6,58.7,53.9,98,77,54,29.95,29.79,5,2,0,0.14
2013-4-2,60.8,58.9,57.2,56.9,55.3,54.4,91,88,86,29.97,29.96,0,0,0,0.00
2013-4-3,77.5,64.0,49.5,60.1,55.9,33.6,98,78,49,29.99,29.79,3,0,0,0.00
2013-4-4,68.4,59.4,52.9,64.0,56.5,46.0,98,90,60,29.98,29.84,8,1,0,0.68
2013-4-5,72.9,60.7,51.4,59.7,55.1,33.6,98,83,49,30.03,29.93,4,0,0,0.00
2013-4-6,71.1,60.4,52.2,60.6,55.8,51.7,98,86,67,30.05,29.93,5,1,0,0.00
2013-4-7,75.4,60.5,49.9,66.7,54.6,46.5,98,82,61,30.01,29.65,6,2,0,0.00
2013-4-8,68.7,58.7,49.5,51.5,42.7,38.1,98,59,34,29.86,29.61,8,4,0,0.00
2013-4-9,75.2,62.6,46.4,45.1,41.6,37.6,77,50,26,29.96,29.87,7,2,0,0.00
2013-4-10,88.3,70.6,51.3,60.8,51.5,44.3,78,54,30,30.06,29.79,3,0,0,0.02
2013-4-11,80.1,70.7,55.0,57.1,48.5,37.7,82,48,24,29.86,29.64,5,1,0,0.00
2013-4-12,84.2,65.6,48.7,58.4,49.2,39.4,98,61,23,29.77,29.61,3,0,0,0.00
2013-4-13,80.1,66.3,51.3,57.6,52.8,48.2,89,64,39,29.73,29.54,5,1,0,0.00
2013-4-14,79.0,61.6,46.9,50.9,45.0,30.9,98,60,21,29.77,29.51,4,1,0,0.00
2013-4-15,69.3,55.7,46.9,52.0,47.0,32.2,98,75,45,29.77,29.65,5,1,0,0.05
2013-4-16,68.5,57.2,44.8,40.3,34.7,28.2,72,46,23,30.03,29.78,7,2,0,0.00
2013-4-17,70.7,58.6,43.5,41.4,33.0,26.3,75,42,20,30.14,30.01,7,2,0,0.00
2013-4-18,78.4,62.3,42.3,43.9,29.7,-32.2,80,42,1,30.16,30.00,5,0,0,0.00
2013-4-19,85.3,67.4,48.7,54.5,47.9,42.9,83,53,28,30.11,29.86,4,0,0,0.00
2013-4-20,84.9,70.0,53.8,49.9,31.6,-29.4,71,40,1,29.96,29.78,5,1,0,0.01
2013-4-21,89.1,70.7,50.5,54.4,47.1,-24.5,89,51,1,29.91,29.70,3,0,0,0.00
2013-4-22,90.1,73.1,55.0,54.7,30.8,-29.6,88,42,1,29.83,29.67,7,1,0,0.00
2013-4-23,87.3,71.8,57.9,48.2,12.3,-30.9,61,23,1,29.79,29.65,6,2,0,0.00
2013-4-24,92.7,69.8,50.5,55.0,28.1,-25.0,87,47,1,29.73,29.56,8,1,0,0.00
2013-4-25,80.6,64.0,51.3,55.4,52.4,49.6,94,69,41,29.96,29.73,6,2,0,0.00
2013-4-26,84.6,66.3,49.6,58.1,53.8,49.1,98,68,38,30.09,29.93,5,1,0,0.00
2013-4-27,91.4,70.5,51.6,60.7,55.8,51.1,98,64,34,30.09,29.80,3,0,0,0.00
2013-4-28,92.8,74.4,55.0,59.5,53.3,41.4,93,54,20,29.90,29.63,4,0,0,0.00
2013-4-29,93.9,76.7,58.6,59.2,47.3,-21.8,93,48,1,29.74,29.50,4,1,0,0.00
2013-4-30,85.8,74.0,60.3,54.1,8.3,-35.1,60,23,1,29.70,29.59,6,2,0,0.00
2013-5-1,90.1,74.9,59.2,44.0,4.5,-35.5,48,16,1,29.93,29.70,6,2,0,0.00
2013-5-2,93.9,75.0,54.3,45.4,14.2,-28.5,55,24,1,30.04,29.87,4,0,0,0.00
2013-5-3,95.0,77.5,56.7,53.9,31.5,-23.4,73,34,1,29.93,29.61,3,0,0,0.00
2013-5-4,93.4,76.9,60.1,53.2,23.1,-27.1,72,33,1,29.63,29.31,5,1,0,0.00
2013-5-5,81.0,68.6,55.9,54.9,52.0,48.7,82,58,38,29.66,29.41,7,1,0,0.00
2013-5-6,79.5,65.3,58.6,61.3,56.3,51.8,98,75,46,29.82,29.66,4,1,0,1.06
2013-5-7,78.6,67.0,57.0,61.6,57.4,55.7,98,74,48,29.88,29.79,4,1,0,0.00
2013-5-8,80.1,66.5,56.7,60.2,56.3,52.7,98,72,42,29.98,29.84,6,1,0,0.01
2013-5-9,86.5,68.0,52.7,62.9,57.1,52.2,98,71,42,29.99,29.85,4,2,0,0.00
2013-5-10,90.1,71.4,54.0,65.5,59.1,53.4,98,68,43,30.03,29.85,4,1,0,0.00
2013-5-11,97.5,78.1,58.1,66.2,60.9,55.8,93,60,34,29.97,29.83,3,0,0,0.00
2013-5-12,99.9,78.5,60.4,60.6,53.0,-19.3,81,49,1,29.96,29.79,5,1,0,0.00
2013-5-13,95.7,77.2,59.4,62.7,55.4,50.0,76,50,23,29.90,29.71,4,1,0,0.00
2013-5-14,95.9,75.7,59.0,63.6,58.1,51.3,88,58,33,29.77,29.66,5,1,0,0.01
2013-5-15,82.8,68.2,55.0,55.6,52.4,48.6,79,59,37,29.87,29.76,6,3,0,0.00
2013-5-16,81.7,65.6,56.8,59.3,54.1,50.1,86,68,41,29.87,29.73,7,3,0,0.00
2013-5-17,81.9,66.0,52.7,57.6,50.5,45.1,89,61,31,29.92,29.79,7,2,0,0.00
2013-5-18,86.4,68.8,50.9,56.1,50.6,41.1,92,57,21,30.00,29.84,6,1,0,0.00
2013-5-19,85.6,73.1,58.5,56.2,49.6,40.8,89,48,21,29.98,29.76,4,1,0,0.00
2013-5-20,93.6,76.3,60.8,54.0,34.5,-25.7,69,37,1,29.85,29.69,4,1,0,0.00
2013-5-21,88.3,71.3,59.2,54.8,45.6,-26.3,72,48,1,29.79,29.66,7,2,0,0.00
2013-5-22,74.8,62.3,50.2,45.8,19.9,-35.4,69,33,1,29.87,29.69,5,1,0,0.00
2013-5-23,78.1,63.0,48.4,50.2,43.7,31.9,86,54,22,29.85,29.73,5,1,0,0.00
2013-5-24,83.8,66.1,50.4,52.9,44.9,-30.5,86,53,1,29.87,29.72,5,1,0,0.00
2013-5-25,82.6,65.6,52.2,55.6,50.2,44.1,84,61,27,29.86,29.76,5,2,0,0.00
2013-5-26,82.6,66.4,52.7,58.4,52.9,47.5,95,65,31,29.94,29.80,5,2,0,0.00
2013-5-27,70.0,61.8,54.0,59.8,54.5,50.2,98,78,62,29.95,29.80,6,2,0,0.03
2013-5-28,81.5,68.2,58.3,63.5,58.0,52.2,98,73,38,29.86,29.69,5,1,0,0.01
2013-5-29,84.2,69.9,56.7,62.1,54.6,-28.5,98,65,1,29.79,29.66,6,1,0,0.10
2013-5-30,88.0,71.0,54.5,59.9,53.6,44.3,94,59,26,29.82,29.71,4,1,0,0.00
2013-5-31,93.6,75.1,54.5,57.5,48.5,-22.9,96,49,1,29.85,29.63,4,1,0,0.00
2013-6-1,99.9,79.8,59.5,61.1,48.0,-20.9,82,45,1,29.74,29.54,2,0,0,0.00
2013-6-2,99.5,80.8,62.1,62.9,57.0,47.8,86,49,20,29.56,29.41,3,0,0,0.00
2013-6-3,79.5,68.6,61.0,60.9,56.3,52.8,82,65,53,29.61,29.47,5,1,0,0.01
2013-6-4,86.0,70.0,56.1,62.2,57.3,53.2,92,67,43,29.73,29.61,7,3,0,0.00
2013-6-5,91.4,70.8,54.9,64.8,58.3,52.7,96,68,41,29.82,29.64,5,2,0,0.00
2013-6-6,94.6,72.7,55.6,67.1,59.6,54.2,95,67,37,29.76,29.58,6,1,0,0.00
2013-6-7,103.1,88.3,64.4,71.1,66.5,57.0,77,51,31,29.66,29.42,3,0,0,0.00
2013-6-8,108.1,90.9,69.1,70.4,65.9,59.7,85,48,26,29.53,29.40,3,0,0,0.00
2013-6-9,85.8,74.1,61.7,63.4,59.6,56.0,83,62,46,29.67,29.54,7,3,0,0.00
2013-6-10,75.2,65.8,58.6,60.7,56.9,55.1,91,74,56,29.78,29.64,5,1,0,0.00
2013-6-11,86.5,72.9,57.2,62.0,58.0,54.6,96,63,36,29.80,29.65,4,1,0,0.00
2013-6-12,92.8,74.3,59.7,62.9,54.7,45.0,81,54,20,29.77,29.63,4,1,0,0.00
2013-6-13,89.8,72.6,55.2,55.7,39.5,-27.4,79,44,1,29.91,29.77,4,1,0,0.00
2013-6-14,91.0,75.5,59.5,56.5,43.4,-25.3,76,43,1,29.80,29.60,3,0,0,0.00
2013-6-15,95.9,75.3,60.3,58.0,49.9,-21.8,68,46,1,29.77,29.56,6,1,0,0.00
2013-6-16,96.8,75.5,57.6,58.9,54.0,50.2,81,52,22,29.87,29.76,4,1,0,0.00
2013-6-17,94.3,74.3,58.6,59.2,55.8,52.9,82,56,27,29.87,29.70,4,2,0,0.00
2013-6-18,85.6,69.1,56.8,58.6,55.0,51.9,93,64,34,29.83,29.70,7,2,0,0.00
2013-6-19,82.9,68.7,53.1,54.7,44.8,-28.5,91,53,1,29.89,29.74,3,1,0,0.00
2013-6-20,90.1,72.4,54.7,55.8,52.1,45.9,90,53,22,29.82,29.68,4,0,0,0.00
2013-6-21,93.7,75.0,56.3,58.2,48.9,-24.6,84,48,1,29.79,29.67,3,0,0,0.00
2013-6-22,79.9,68.0,58.5,58.6,54.4,52.8,85,63,40,29.76,29.61,4,0,0,0.00
2013-6-23,70.3,67.2,62.2,64.9,60.9,54.6,92,81,59,29.66,29.61,6,2,0,0.00
2013-6-24,71.1,63.7,61.9,66.1,62.0,59.2,98,95,73,29.77,29.64,3,1,0,0.38
2013-6-25,77.5,68.1,62.6,72.2,66.1,62.0,98,94,79,29.82,29.75,5,0,0,0.18
2013-6-26,85.8,69.4,62.4,69.9,64.1,61.8,98,86,49,29.88,29.74,2,0,0,0.00
2013-6-27,73.9,73.0,71.2,67.0,65.9,64.0,79,78,78,29.89,29.86,2,1,0,0.00
2013-6-28,100.8,91.4,81.7,66.9,64.6,62.9,53,42,32,29.76,29.66,3,0,0,0.00
2013-6-29,108.0,88.6,71.6,65.7,57.4,-16.2,73,44,1,29.74,29.53,3,0,0,0.00
2013-6-30,108.9,86.4,71.1,69.6,63.0,-13.6,75,51,1,29.66,29.53,3,0,0,0.00